ATLAS 5 CENTAUR DEB, 55855

Orbit data source: Space-Track

ATLAS 5 CENTAUR DEB, 55855 is space debris in HEO originally from a launch on Wed, 17 Oct 2018 UTC launched from the Air Force Eastern Test Range (AFETR). Debris objects in space refer to the collection of defunct objects orbiting the Earth. Examples of debris include non-operational satellites, rocket bodies, and fragments generated from explosions, collisions, or faulty payload assembly.

Loading next visibility...
Identifier
55855, 2018-079HH
Orbit
HEO
Country
Flag of USUS
Related business
Flag of USUnited Launch Alliance/Lockheed Martin (US)
Manufacturer
ULA Decatur
Mission
Spacecraft
Bus & Motor
Unknown
Mass
Unknown
Launch date (UTC)
2018-10-17 (8 years ago)
Launch vehicle
Unknown
Launch site
Air Force Eastern Test Range (AFETR)
Object type
Payload
Rocket body
Debris
Shape & HBR
Unknown shape, 1.1 m
Radar Cross Section
RCS unknown

Expand to show TLE details & history
Last TLE update: 5 days ago

TLE from 5 days ago
0 ATLAS 5 CENTAUR DEB
1 55855U 18079HH  26214.72090753 -.00000082  00000-0  00000-0 0  9992
2 55855  13.3847  11.6973 4630703   7.4606 357.4806  1.90886893 18968
Epoch: 2026-08-02T17:18Z
TLE epoch observation values (Epoch: 2026-08-02T17:18:06.410Z)
Latitude
0.00014°
Longitude
160.87804°
Altitude
8,418.099 km
Speed
6.274 km/s
True Right ascension
00h 46m 52s
True Declination
0° 00' 00"
Sunlit
Object was in daylight at epoch
Visualization orbit readout
Latitude
Unknown
Longitude
Unknown
Altitude
Unknown
Speed
Unknown
Apparent Right ascension
Unknown
Apparent Declination
Unknown
Sunlit
N/A
Visualization observer readout
Local Sidereal Time
15:42:09
Azimuth
Unknown
Elevation
Unknown
Doppler factor
Unknown
Orbital elements
Apogee altitude
33,787.077 km
Perigee altitude
8,362.027 km
Semi-major axis
27,452.689 km
Eccentricity
0.46307
Inclination
13.3847°
RAAN
11.6973°
Arg. of periapsis
7.4606°
True anomaly
352.2693°
Mean anomaly
357.4806°
Eccentric anomaly
355.31227°
Mean motion
0.47716 °/min
Orbital period
754.46 mins
BSTAR
0
Loading maneuver chart data...
Computing Atmospheric mass density...

Documentation

Showing up to 5 results
|